Weather History for EGOM - February, 2013

Change the Weather History Date:

Saturday, February 9, 2013

  Actual Average Record
Temperature  
Mean Temperature 34 °F -  
Max Temperature 37 °F - - ()
Min Temperature 32 °F - - ()
Degree Days  
Heating Degree Days 30    
Moisture  
Dew Point 34 °F    
Average Humidity 99    
Maximum Humidity 100    
Minimum Humidity 93    
Precipitation  
Precipitation 0.00 in - - ()
Sea Level Pressure  
Sea Level Pressure 29.98 in    
Wind  
Wind Speed 4 mph ()    
Max Wind Speed 9 mph    
Max Gust Speed -    
Visibility 3.3 miles    
Events Fog , Rain , Snow    
T = Trace of Precipitation, MM = Missing Value Source: Averaged Metar Reports

Daily Weather History Graph

Daily Weather History Graph

Search for Another Location

Airport or City:

Astronomy

Feb. 09, 2013 Rise Set
Actual Time 7:45 AM GMT 5:04 PM GMT
Civil Twilight 7:06 AM GMT 5:42 PM GMT
Nautical Twilight 6:23 AM GMT 6:25 PM GMT
Astronomical Twilight 5:41 AM GMT 7:07 PM GMT
Moon 6:48 AM GMT (2/9) 4:33 PM GMT (2/9)
Length of Visible Light 10h 36m
Length of Day
9h 18m
Waning Crescent, 1% of the Moon is Illuminated
Feb 9
Waning Crescent
Feb 10
New
Feb 17
First Quarter
Feb 25
Full
Mar 4
Last Quarter

Hourly Weather History & Observations

Time (GMT) Temp. Windchill Dew Point Humidity Pressure Visibility Wind Dir Wind Speed Gust Speed Precip Events Conditions
12:50 AM 33.8 °F 26.4 °F 32.0 °F 93% 30.09 in 6.2 mi West 9.2 mph - N/A Rain Light Rain Showers
1:50 AM 33.8 °F 30.8 °F 32.0 °F 93% 30.09 in 5.0 mi West 3.5 mph - N/A Snow Light Snow
2:50 AM 32.0 °F 28.7 °F 32.0 °F 100% 30.06 in 3.1 mi West 3.5 mph - N/A Snow Light Snow
3:50 AM 32.0 °F 27.5 °F 32.0 °F 100% 30.06 in 1.3 mi West 4.6 mph - N/A Snow Light Snow
4:50 AM 32.0 °F 26.4 °F 32.0 °F 100% 30.04 in 0.9 mi West 5.8 mph - N/A Snow Snow Grains
5:50 AM 32.0 °F 27.5 °F 32.0 °F 100% 30.04 in 0.1 mi West 4.6 mph - N/A Snow Snow Grains
6:50 AM 32.0 °F 26.4 °F 32.0 °F 100% 30.04 in 5.6 mi West 5.8 mph - N/A   Mostly Cloudy
7:50 AM 32.0 °F 28.7 °F 32.0 °F 100% 30.04 in 4.3 mi West 3.5 mph - N/A   Light Drizzle
8:50 AM 32.0 °F - 32.0 °F 100% 30.04 in 6.2 mi Calm Calm - N/A   Mostly Cloudy
9:50 AM 33.8 °F - 33.8 °F 100% 30.04 in - ENE 2.3 mph - N/A   Overcast
10:50 AM 33.8 °F - 33.8 °F 100% 30.04 in 1.8 mi ESE 1.2 mph - N/A   Mostly Cloudy
11:50 AM 35.6 °F - 35.6 °F 100% 30.01 in 1.6 mi South 2.3 mph - N/A   Mostly Cloudy
12:50 PM 35.6 °F - 35.6 °F 100% 30.01 in 3.1 mi WNW 1.2 mph - N/A   Mostly Cloudy
1:50 PM 35.6 °F - 35.6 °F 100% 29.98 in 6.2 mi SSW 1.2 mph - N/A   Mostly Cloudy
2:50 PM 37.4 °F - 35.6 °F 93% 29.95 in 6.2 mi Calm Calm - N/A   Overcast
3:50 PM 35.6 °F 31.7 °F 35.6 °F 100% 29.95 in 0.2 mi ENE 4.6 mph - N/A Fog Fog
4:50 PM 35.6 °F 31.7 °F 35.6 °F 100% 29.95 in - East 4.6 mph - N/A Fog Fog
5:50 PM 35.6 °F 31.7 °F 33.8 °F 93% 29.92 in - ENE 4.6 mph - N/A   Overcast
6:50 PM 33.8 °F 28.6 °F 33.8 °F 100% 29.92 in - East 5.8 mph - N/A   Overcast
7:50 PM 33.8 °F 28.6 °F 33.8 °F 100% 29.89 in 5.6 mi East 5.8 mph - N/A   Overcast
8:50 PM 33.8 °F 27.7 °F 33.8 °F 100% 29.86 in - ENE 6.9 mph - N/A   Scattered Clouds
9:50 PM 33.8 °F 27.7 °F 33.8 °F 100% 29.83 in 3.1 mi ENE 6.9 mph - N/A   Mostly Cloudy
10:50 PM 33.8 °F 28.6 °F 33.8 °F 100% 29.80 in 1.2 mi ENE 5.8 mph - N/A   Mostly Cloudy
11:50 PM 33.8 °F 28.6 °F 33.8 °F 100% 29.77 in 0.2 mi East 5.8 mph - N/A Fog Fog